Weather in Shirokoe

Ukraine / Odesa District     45°57′59″N   30°05′25″E
temp.,
°C
wind,
m/s
gust,
m/s
humid.,
%
clouds,
%
prec.,
mm/h
press.,
hPa
HPBL,
m
28 october, thu
thu2800:00+9n34655 0.0 102747
03:00+8n34645 0.0 102763
06:00+7n347141 0.0 102755
09:00+8n34655 0.0 1028135
12:00+14n34495 0.0 1028729
15:00+16nnw2341100 0.0 10261190
18:00+12s125657 0.0 102622
21:00+10ssw11673 0.0 102710
29 october, fri
fri2900:00+10nw22625 0.0 102710
03:00+9nnw23675 0.0 102620
06:00+8n33716 0.0 102628
09:00+10nne247058 0.0 102798
12:00+15ne445697 0.0 1027489
15:00+16e445416 0.0 1027779
18:00+12e34785 0.0 102748
21:00+10e22860 0.0 102714
30 october, sat
sat3000:00+10ene22850 0.0 102712
03:00+10ne23885 0.0 102721
06:00+9ene33890 0.0 102841
09:00+11e36890 0.0 1028234
12:00+15ese56591 0.0 10281095
15:00+14e66590 0.0 10271031
18:00+11e36820 0.0 1027125
21:00+10ene37880 0.0 1027133
31 october, sun
sun3100:00+10e38904 0.0 1027152
03:00+9e35890 0.0 102666
05:00+9ene359019 0.0 102684
08:00+11e488012 0.0 1026485
11:00+14e55611 0.0 1025960
14:00+14e54600 0.0 1024930
17:00+10ene34820 0.0 102376
20:00+9ene22873 0.0 102321
31 october, sun
sun3123:00+8ne229119 0.0 102223
02:00+8nne239418 0.0 102126
05:00+8ne33953 0.0 102028
08:00+10ne23916 0.0 1020106
11:00+15se23618 0.0 1018811
14:00+16sse335197 0.0 1017965
17:00+11sse347915 0.0 101767
20:00+11sse3387100 0.0 101640